Regional Weather Roundup
Issued by NWS Charleston, WV

Home | Current Version | Previous Version | Text Only | Print | Product List | Glossary Off
Versions: 1 2 3 4 5 6 7 8 9 10 11 12 13 14 15 16 17 18 19 20 21 22 23 24 25 26 27 28 29 30 31 32 33 34 35 36 37 38 39 40 41 42 43 44 45 46 47 48 49 50

000
ASUS41 KRLX 041710
RWRRLX
West Virginia Regional Weather Roundup
National Weather Service Charleston WV
100 PM EDT SAT JUL 04 2015

Note: "fair" indicates few or no clouds below 12,000 feet with no
significant weather and/or obstructions to visibility.

WVZ003-041800-
Northern Panhandle of West Virginia

CITY           SKY/WX    TMP DP  RH WIND       PRES   REMARKS
WHEELING       MOSUNNY   76  62  62 N6        29.98R
$$

WVZ009-041800-
Northwest West Virginia

CITY           SKY/WX    TMP DP  RH WIND       PRES   REMARKS
PARKERSBURG    MOSUNNY   78  62  57 N6        30.01S
$$

WVZ006-041800-
Western West Virginia

CITY           SKY/WX    TMP DP  RH WIND       PRES   REMARKS
HUNTINGTON     PTSUNNY   75  64  68 VRB5      30.00S
$$

WVZ015-041800-
West Central West Virginia

CITY           SKY/WX    TMP DP  RH WIND       PRES   REMARKS
CHARLESTON     PTSUNNY   77  62  59 CALM      30.00R
$$

WVZ022-031-041800-
North Central West Virginia

CITY           SKY/WX    TMP DP  RH WIND       PRES   REMARKS
CLARKSBURG     PTSUNNY   75  66  73 NW6       29.98S
MORGANTOWN     MOSUNNY   77  64  64 CALM      29.98S
$$

WVZ025-035-042-045-041800-
Southern West Virginia

CITY           SKY/WX    TMP DP  RH WIND       PRES   REMARKS
BECKLEY        LGT RAIN  67  64  90 W3        30.07R FOG
LOGAN          CLOUDY    70  66  88 CALM      30.01R
BLUEFIELD      PTSUNNY   75  62  64 NW10      30.08S
LEWISBURG      LGT RAIN  69  65  86 CALM      30.04R
$$

WVZ047-041800-
Northern Mountains of West Virginia

CITY           SKY/WX    TMP DP  RH WIND       PRES   REMARKS
ELKINS         PTSUNNY   74  64  71 NW7       30.01S
$$

WVZ052-041800-
Eastern Panhandle of West Virginia

CITY           SKY/WX    TMP DP  RH WIND       PRES   REMARKS
MARTINSBURG    CLOUDY    76  67  73 CALM      29.91F
PETERSBURG     CLOUDY    81  63  54 CALM      29.94R
$$



USA.gov is the U.S. government's official web portal to all federal, state and local government web resources and services.